Regional Weather Roundup
Issued by NWS

Home | Current Version | Previous Version | Graphics & Text | Print | Product List | Glossary On
Versions: 1 2 3 4 5 6 7 8 9 10 11 12 13 14 15 16 17 18 19 20 21 22 23 24 25 26 27 28 29 30 31 32 33 34 35 36 37 38 39 40 41 42 43 44 45 46 47 48 49 50
000
ASUS43 KMKX 282328
RWRWI

WISCONSIN REGIONAL WEATHER ROUNDUP
NATIONAL WEATHER SERVICE MILWAUKEE/SULLIVAN WI
600 PM CDT THU MAY 28 2015

NOTE: "FAIR" INDICATES FEW OR NO CLOUDS BELOW 12,000 FEET WITH NO
SIGNIFICANT WEATHER AND/OR OBSTRUCTIONS TO VISIBILITY.

WIZ001-002-006>008-014>016-023>028-290000-
NORTHWEST WISCONSIN

CITY           SKY/WX    TMP DP  RH WIND       PRES   REMARKS
SUPERIOR ARPT  CLOUDY    42  41  94 E12       29.99F
ASHLAND        SUNNY     57  49  74 N10       29.98F
HAYWARD        SUNNY     81  52  36 S16G25    29.97F HX  80
SIREN          SUNNY     81  51  34 S17G24    29.94F HX  80
CUMBERLAND     SUNNY     77  52  41 S16G25    29.98F
RICE LAKE      SUNNY     80  50  35 S14       30.00F
CHETEK         SUNNY     80  54  41 S17       29.99F HX  80
LADYSMITH      MOSUNNY   79  55  43 S16G24    30.03F HX  80
EAU CLAIRE     MOSUNNY   80  52  37 S15G22    30.00F HX  80
MENOMONIE      MOSUNNY   80  53  39 S16       30.00F HX  80
NEW RICHMOND   MOSUNNY   79  47  31 S20G26    29.97F
OSCEOLA        MOSUNNY   82  52  34 S23       29.98F HX  81
$$

WIZ003>005-009-010-017-018-290000-
NORTH CENTRAL WISCONSIN

CITY           SKY/WX    TMP DP  RH WIND       PRES   REMARKS
MANITOWISH WTR MOSUNNY   80  52  37 SW13      30.01F HX  80
ARBOR VITAE    MOSUNNY   80  53  39 S16G23    30.03F HX  80
WOODRUFF       MOSUNNY   80  53  39 S16G23    30.03F HX  80
RHINELANDER    MOSUNNY   79  55  43 VRB7      30.05F
EAGLE RIVER    PTSUNNY   79  43  27 S7G18     30.04F
LAND O LAKES   PTSUNNY   77  49  37 SW7       30.05S
PHILLIPS       MOSUNNY   79  53  40 SW10      30.01F
TOMAHAWK       SUNNY     76  54  46 CALM      30.05F
MEDFORD        MOSUNNY   77  57  50 S13       30.05F
MERRILL        SUNNY     80  55  42 SW13G18   30.05F HX  80
$$

WIZ029-030-035-036-043>047-290000-
CENTRAL WISCONSIN

CITY           SKY/WX    TMP DP  RH WIND       PRES   REMARKS
WAUSAU         PTSUNNY   80  54  40 S15G25    30.04F HX  80
MOSINEE        PTSUNNY   79  57  47 S15G24    30.07F HX  80
MARSHFIELD     MOSUNNY   79  55  43 S9        30.05F
STEVENS POINT  MOSUNNY   79  54  42 S17       30.06F
WAUPACA        MOSUNNY   82  55  39 S12       30.07F HX  82
WAUTOMA        MOSUNNY   82  51  34 S13G21    30.07F HX  81
WISC RAPIDS    MOSUNNY   81  50  33 SW14      30.06F HX  80
CAMP DOUGLAS   PTSUNNY   79  55  44 S13       30.05F
$$

WIZ011>013-019>022-031-037>040-048>050-290000-
NORTHEAST WISCONSIN

CITY           SKY/WX    TMP DP  RH WIND       PRES   REMARKS
ANTIGO         MOSUNNY   74  57  55 SW12G20   30.07F
SHAWANO        MOSUNNY   83  55  37 SW8       30.06F HX  82
OCONTO         MOSUNNY   77  62  60 S9G16     30.07F
STURGEON BAY   MOSUNNY   72  57  60 S15G21    30.12F
GREEN BAY      MOSUNNY   79  62  56 S15G23    30.08F HX  80
MANITOWOC      MOSUNNY   70  56  61 S15       30.12F
APPLETON       MOSUNNY   81  55  41 S14       30.09F HX  80
CLINTONVILLE   MOSUNNY   81  55  41 S13       30.06F HX  80
OSHKOSH        MOSUNNY   80  56  43 S16G22    30.08F HX  80
$$

WIZ032>034-041-042-053>061-290000-
SOUTHWEST WISCONSIN

CITY           SKY/WX    TMP DP  RH WIND       PRES   REMARKS
LA CROSSE      MOSUNNY   82  54  37 S16       30.01F HX  81
SPARTA         SUNNY     79  49  34 S10G18    30.05F
VIROQUA        MOSUNNY   78  52  40 S10       30.06F
BOSCOBEL       MOSUNNY   82  53  36 S9        30.05F HX  81
PRAIRIE DU CHI MOSUNNY   81  46  30 SE10      30.03F HX  80
PLATTEVILLE    MOSUNNY   80  52  37 SE14      30.07F HX  80
$$

WIZ056-057-062-063-064-067-068-290000-
SOUTH CENTRAL WISCONSIN

CITY           SKY/WX    TMP DP  RH WIND       PRES   REMARKS
REEDSBURG      MOSUNNY   78  57  49 S7        30.07F
BARABOO/DELLS  MOSUNNY   78  53  41 S12G17    30.08F
LONE ROCK      MOSUNNY   80  51  36 S16       30.06F HX  80
MINERAL POINT  MOSUNNY   81  46  30 S12G20    30.08F HX  80
MADISON        PTSUNNY   81  52  36 S10       30.08F HX  80
MIDDLETON      PTSUNNY   83  47  28 S10G17    30.09F HX  81
WATERTOWN      MOSUNNY  N/A N/A N/A S6        30.09F
MONROE         MOSUNNY   79  52  38 S12       30.09F
JANESVILLE     MOSUNNY   82  52  34 SE12      30.09F HX  81
$$

WIZ051-052-058>065-066-070>072-290000-
SOUTHEAST WISCONSIN

CITY           SKY/WX    TMP DP  RH WIND       PRES   REMARKS
MILWAUKEE      PTSUNNY   74  55  51 SE12      30.12F
WAUKESHA       SUNNY     75  52  43 SE14      30.14F
MILWAUKEE/TIMM SUNNY     79  45  29 S9        30.13F
RACINE         MOSUNNY   74  55  51 S7        30.15F
BURLINGTON     MOSUNNY   78  50  38 SE13      30.11F
KENOSHA        MOSUNNY   76  57  51 E12       30.13F
FOND DU LAC    SUNNY     81  56  42 S14       30.09F HX  81
SHEBOYGAN      MOSUNNY   74  57  55 S10       30.12F
WEST BEND      SUNNY     77  54  44 SE8       30.11F
JUNEAU         MOSUNNY   79  56  44 S10       30.11F HX  80
$$

LSZ147-162-290000-
LAKE SUPERIOR

STATION/POSITION TIME  TEMP    WIND        PRES    WAVE
                       AIR SEA DIR/SP/G            HT/PER
                 (UTC) (F)     (DEG/KT/KT) (MB)    (FT/S)
W MID LAKE BUOY  2250   38 37   40/ 14/ 17   N/A     3/ 5
DEVILS ISLAND    2300   39      60/  9/ 10   N/A
PORT WING        2200   41      20/ 16/ 18   N/A
SAXON HARBOR     2200   46        CALM       N/A
$$

LMZ867-665-643>646-290000-
LAKE MICHIGAN

STATION/POSITION TIME  TEMP    WIND        PRES    WAVE
                       AIR SEA DIR/SP/G            HT/PER
                 (UTC) (F)     (DEG/KT/KT) (MB)    (FT/S)
CHAMBERS ISLAND  2200   74     150/  8/ 15   N/A
N MID LAKE BUOY  2250   42 37  170/  8/ 10   N/A     1
NORTHPORT PIER   2200   51     150/ 10/ 15   N/A
SISTER BAY       2248   70     180/ 16/ 21   N/A
ALGOMA LAKESHORE 2223          220/ 12/ 14   N/A
KEWAUNEE LAKESHO 2300   52     180/ 13/ 15   N/A
SHEBOYGAN LAKESH 2300   62     170/ 18/ 19   N/A
PORT WASHINGTON  2200   61     190/  6/  9   N/A
ATWATER BUOY     2300   55     170/  6/  8   N/A
MILWAUKEE LAKESH 2300   58     140/ 12/ 13   N/A
S MID LAKE BUOY  2250   59 39   70/  6/  6   N/A     0
KENOSHA   LAKESH 2300   60      50/  1/  2   N/A
$$

TC  - TEMPERATURE IN CELSIUS
VSB - VISIBILITY IN STATUTE MILES
WCI - WIND CHILL INDEX
HX  - HEAT INDEX




USA.gov is the U.S. government's official web portal to all federal, state and local government web resources and services.